Location: Brunsen
(51.8651°N, 9.8610°E)
Time: 20:53:04
(UTC+00:00)

CZ-2C R/B - Pass Details

Date: 20 August 2024
Orbit: 782 x 869 km, 98.3° (Epoch: 07 September)

Event Time Altitude Azimuth Distance (km) Brightness Sun altitude
Exits shadow 02:42:04 15° 254° (WSW) 2,087 4.2 -12.9°
Maximum altitude 02:43:32 17° 273° (W) 1,993 4.2 -12.8°
Drops below altitude 10° 02:46:57 10° 313° (NW) 2,422 5.0 -12.4°
Sets 02:50:10 0° 333° (NNW) 3,342 6.0 -12.0°
